Regional Weather Roundup
Issued by NWS Midland/Odessa, TX

Skip options and go directly to product.
Home | Oldest Version | Previous Version | Current Version | All | Text Only | Save Text | Print | Product List | Glossary On

Skip product version selection by date and time.   
742
ASUS44 KMAF 171002
RWRMAF
MIDLAND AREA WEATHER ROUNDUP
NATIONAL WEATHER SERVICE MIDLAND TX
500 AM CDT THU APR 17 2014

...IN SOUTHWEST TEXAS AND SOUTHEAST NEW MEXICO...

CITY           SKY/WX    TMP DP  RH WIND       PRES   REMARKS
ALPINE         CLEAR     60  19  21 SW6       29.96S
ANDREWS        FAIR      51  38  60 W3        29.85R
ARTESIA        PTCLDY    54  27  35 N15       29.94R
BIG SPRING     CLEAR     56  40  53 SE12      29.87R
CARLSBAD       LGT RAIN  58  26  29 NW17G29   29.90S
DRYDEN           N/A     57  46  66 E10       29.86R
FORT STOCKTON  CLEAR     54  40  59 S21G28    29.83S
GUAD PASS      CLEAR     53  19  26 E14       29.96R
HOBBS          MOCLDY    46  32  57 CALM      29.90S
MARFA          CLEAR     45  16  31 W3        29.96S
MIDLAND AIRPK  CLEAR     57  42  57 S9        29.83S
MIDLAND INTL   CLEAR     56  42  59 S13       29.83R
ODESSA         CLEAR     55  41  59 S10       29.84R
PECOS          CLEAR     52  33  48 NW8       29.85R
PRESIDIO       FAIR      58  19  22 CALM      29.85R
SEMINOLE       PTCLDY    49  35  58 NW6       29.91R
SNYDER         PTCLDY    55  38  54 E7        29.88R
WINK           CLEAR     55  40  56 W8        29.85R
$$
...OTHER STATIONS IN TEXAS...

CITY           SKY/WX    TMP DP  RH WIND       PRES   REMARKS
ABILENE        CLEAR     53  45  74 SE18      29.91R
AMARILLO       CLOUDY    45  33  63 NE17      30.01R WCI  38
AUSTIN         CLOUDY    55  51  86 E3        30.00S
BROWNSVILLE    CLOUDY    63  60  90 E6        29.90F
CORPUS CHRISTI CLOUDY    66  60  81 E9        29.95S
DALLAS FTW     PTCLDY    50  44  80 SE8       30.06R
DEL RIO        MOCLDY    61  52  72 SE14      29.89S
EL PASO        MOCLDY    68   2   7 W14       29.89R
HOUSTON INT    CLOUDY    55  53  93 E6        30.06S
LUBBOCK        CLOUDY    50  33  52 E6        29.94R
SAN ANGELO     CLEAR     53  45  74 SE6       29.88S
SAN ANTONIO    CLOUDY    57  52  83 E5        29.98R
WACO           CLOUDY    54  49  83 E7        30.04R
WICHITA FALLS  NOT AVBL
$$
...OTHER LOCATIONS IN NEW MEXICO...

CITY           SKY/WX    TMP DP  RH WIND       PRES   REMARKS
ALAMAGORDO     PTCLDY    57   5  12 SW5       29.91R
ALBUQUERQUE    PTCLDY    51  24  34 N6        30.03R
CANNON AFB     MOCLDY    45  30  56 N26G35    29.95R WCI  35
CLOVIS         MOCLDY    45  28  53 N22G29    29.98R WCI  36
HOLLOMAN AFB   PTCLDY    57  21  24 N12       29.90R
ROSWELL        CLEAR     55  27  34 N14       29.96R
RUIDOSO        CLEAR     41  21  45 NW7       30.06R WCI  36
SANTA FE       PTCLDY    38  30  73 NW5       30.05R WCI  34
TRUTH OR CONSE FAIR      55  16  21 N7        29.97R
TUCUMCARI      PTCLDY    45  31  58 NE23G30   30.04R WCI  36
$$

USA.gov is the U.S. government's official web portal to all federal, state and local government web resources and services.